Location: Blackberry Lake
(38.0207°N, 89.4058°W)
Time: 19:04:19
(UTC+00:00)

Daily predictions for brighter satellites

Satellite Brightness Start Highest point End
(mag) Time Altitude Azimuth Time Altitude Azimuth Time Altitude Azimuth
Lacrosse 5 rocket 1.1 12:00:48 10° NW 12:04:07 62° NE 12:07:20 10° SE
Lacrosse 4 Rocket 2.1 12:00:33 10° NNW 12:04:24 50° ENE 12:08:10 10° SE
Sich 1 Rocket 4.1 12:04:29 10° NNW 12:08:41 40° W 12:12:50 10° SSW
Cosmos 968 Rocket 4.5 12:04:33 10° NW 12:08:54 27° W 12:13:14 10° SSW
Hubble Space Telescope 3.1 12:06:32 10° SSW 12:09:02 17° S 12:11:32 10° SE
Iridium 45 4.2 12:06:49 10° N 12:10:00 76° W 12:13:16 10° S
ATLAS 3B R/B 4.1 12:04:22 10° W 12:10:14 23° NW 12:16:16 10° NNE
Helios 1A Rocket 3.8 12:07:46 10° SSW 12:10:18 20° W 12:12:53 10° NW
CENTAUR R/B 3.7 12:02:21 10° NW 12:10:48 52° WSW 12:19:51 10° S
SMAP 3.5 12:06:59 10° NNE 12:11:39 69° ESE 12:16:16 10° S
COSMO-SKYMED 1 3.4 12:09:54 10° SSW 12:13:28 28° W 12:17:03 10° NW
Cosmos 1484 Rocket 3.2 12:10:52 10° N 12:14:01 31° WNW 12:17:08 10° SW
CZ-2D R/B 3.6 12:11:21 10° NNE 12:14:27 55° E 12:17:33 10° S
NOSS 2-2 (C) 4.2 12:11:50 10° NW 12:16:12 58° WSW 12:22:21 10° SSE
CZ-3 R/B 2.8 12:13:21 10° W 12:23:32 36° SSW 12:27:59 10° SE
Cosmos 407 Rocket 3.5 23:02:59 10° SSW 23:08:10 81° ESE 23:13:20 10° NNE
IGS 5A 3.3 23:05:26 10° SSE 23:09:24 84° ENE 23:13:23 10° N
CBERS-1 4.3 23:06:59 10° S 23:12:03 75° WSW 23:17:11 10° NNW
SMAP 3.1 23:08:15 10° SSE 23:12:48 57° ENE 23:17:22 10° N
YAOGAN 1 4.4 23:12:19 10° E 23:13:30 11° ENE 23:14:40 10° NE
Cosmos 44 Rocket 3.3 23:10:30 10° SSW 23:15:13 85° WNW 23:20:07 10° NNE
USA 215 3.6 23:10:54 10° ESE 23:17:01 45° NE 23:23:10 10° NW
OAO 2 Rocket 3.7 23:12:38 10° W 23:17:33 62° S 23:22:34 10° ESE
BREEZE-M DEB (TANK) 3.1 23:16:02 10° W 23:18:10 40° NNW 23:22:25 10° NE
Cosmos 1833 Rocket 3.3 23:14:25 10° NNW 23:20:00 63° WSW 23:25:32 10° S
RESURS DK-1 2.7 23:18:40 10° N 23:22:28 40° ENE 23:26:13 10° SE
SL-12 R/B(2) 4.5 23:14:48 10° SW 23:22:29 76° NW 23:31:49 10° NNE
SAR-Lupe-3 3.7 23:20:22 10° NNE 23:22:59 59° ESE 23:25:33 10° S
Landsat 7 3.8 23:20:21 10° SSE 23:24:52 54° ENE 23:29:25 10° N
Cosmos 1400 Rocket 3.8 23:22:20 10° SSE 23:25:28 25° E 23:28:36 10° NE
SPOT 1/Viking Rocket 4.5 23:21:36 10° ESE 23:25:48 26° ENE 23:30:00 10° NNE
Cosmos 540 Rocket 3.6 23:21:33 10° N 23:26:32 50° ENE 23:31:27 10° SE
SJ-12 3.8 23:24:41 10° SSE 23:28:23 55° ENE 23:32:06 10° N
Helios 1A Rocket 3.9 23:31:25 13° NE 23:33:24 19° E 23:35:56 10° SE
Cosmos 1763 Rocket 3.4 23:30:39 10° NNW 23:35:51 74° ENE 23:40:56 10° SSE
DELTA 2 R/B (1) 4.2 23:30:47 10° SW 23:35:59 43° SSE 23:40:20 14° E
Cosmos 304 Rocket 4.1 23:34:22 10° S 23:38:48 42° ESE 23:43:15 10° NNE
Cosmos 371 Rocket 3.6 23:36:42 10° S 23:41:12 43° ESE 23:45:45 10° NNE
Cosmos 1536 Rocket 4.2 23:39:05 10° NNE 23:43:05 33° ENE 23:47:01 10° SE
Okean 2 Rocket 3.5 23:39:14 10° SSE 23:43:19 38° E 23:47:22 10° NNE
Cosmos 1602 2.9 23:53:46 10° N 23:56:50 74° E 23:59:52 10° SSE
